軌道要素
Epoch 2013 Apr. 18.0 TT = JDT 2456400.5
T 2013 Apr. 13.73030 TT MPC
q 2.4601013 (2000.0) P Q
n 0.02619725 Peri. 252.63557 -0.97780244 +0.13661380
a 11.2279090 Node 294.97427 -0.04924172 -0.88680680
e 0.7808941 Incl. 10.09349 -0.20366061 -0.44148655
P 37.6
From 111 observations 2013 Feb. 16-June 9, mean residual 0".4.
|